Latest Coastal Weather Observations for Truscott

IDW60701

Issued at 11:45 pm WST Thursday 23 October 2014 (issued every 10 minutes, with the page automatically refreshed every 10 minutes)

About coastal observations | Map of coastal stations | Coastal observations for WA | Marine services | Other Formats
Station Details ID: 001020 Name: TRUSCOTT Lat: -14.09 Lon: 126.39 Height: 51.0 m
Data from the previous 72 hours. | See also: Recent months at Truscott
Date/Time
WST
Temp

°C
Wind Pressure Rain
since 9am
mm
Weather Cloud Vis
km
Sea
Height
m
Swell
Dir
 
Speed
knots
Gust
knots
hPa Trend Height
m
Period
s
Dir
23/11:30pm 27.0 WSW 4 6 1012.0 - 0.0 - - 10 - - - -
23/11:00pm 28.0 WSW 5 - 1013.0 - 0.0 - - 10 - - - -
23/10:30pm 28.0 WSW 4 - 1013.0 - 0.0 - Partly cloudy 10 - - - -
23/10:00pm 28.0 W 5 - 1013.0 - 0.0 - - 10 - - - -
23/09:30pm 28.0 W 5 - 1013.0 - 0.0 - - 10 - - - -
23/09:00pm 27.8 W 5 - 1013.0 - 0.0 - - 10 - - - -
23/08:30pm 28.0 W 5 - 1013.0 - 0.0 - - 10 - - - -
23/08:00pm 28.0 W 5 - 1013.0 - 0.0 - - 10 - - - -
23/07:30pm 28.0 WNW 5 - 1012.0 - 0.0 - - 10 - - - -
23/07:00pm 28.0 NW 5 - 1012.0 - 0.0 - - 10 - - - -
23/06:30pm 28.0 NW 5 - 1012.0 - 0.0 - - 10 - - - -
23/06:00pm 28.1 NNW 7 - 1011.0 - 0.0 - - 10 - - - -
23/05:30pm 29.0 NNW 8 - 1011.0 - 0.0 - - 10 - - - -
23/05:00pm 29.0 NNW 8 - 1010.0 - 0.0 - - 10 - - - -
23/04:30pm 30.0 NNW 7 - 1011.0 - 0.0 - - 10 - - - -
23/04:00pm 30.0 NNW 8 - 1010.0 - 0.0 - - 10 - - - -
23/03:30pm 31.0 NNW 10 - 1010.0 - 0.0 - - 10 - - - -
23/03:00pm 31.0 NW 10 - 1009.9 - 0.0 - - 10 - - - -
23/02:30pm 31.0 N 10 - 1010.0 - 0.0 - - 10 - - - -
23/02:00pm 31.0 NNW 11 - 1010.0 - 0.0 - - 10 - - - -
23/01:30pm 31.0 NNW 10 - 1010.0 - 0.0 - - 10 - - - -
23/01:00pm 32.0 NNW 10 - 1011.0 - 0.0 - - 10 - - - -
23/12:30pm 32.0 N 9 - 1011.0 - 0.0 - - 10 - - - -
23/12:00pm 32.9 NW 8 - 1011.6 - 0.0 - - 10 - - - -
23/11:30am 31.0 NNW 10 - 1012.0 - 0.0 - - 10 - - - -
23/11:00am 32.0 NNW 10 - 1012.0 - 0.0 - - 10 - - - -
23/10:30am 32.0 NNW 8 - 1013.0 - 0.0 - - 10 - - - -
23/10:00am 33.0 NNW 7 - 1013.0 - 0.0 - Partly cloudy 10 - - - -
23/09:30am 32.0 NW 7 11 1013.0 - 0.0 - Partly cloudy 10 - - - -
23/08:30am 30.0 WNW 5 - 1014.0 - 0.0 - Partly cloudy 10 - - - -
23/08:00am 29.0 W 6 - 1014.0 - 0.0 - Partly cloudy 10 - - - -
23/07:30am 29.0 W 5 - 1014.0 - 0.0 - Partly cloudy 10 - - - -
23/07:00am 29.0 W 7 11 1013.0 - 0.0 - Partly cloudy 10 - - - -
23/06:30am 28.0 WNW 4 - 1013.0 - 0.0 - Partly cloudy 10 - - - -
23/06:00am 26.9 CALM 0 - 1012.6 - 0.0 - Mostly cloudy 10 - - - -
23/05:30am 26.0 SE 1 - 1012.0 - 0.0 - Partly cloudy 10 - - - -
23/05:00am 27.0 SSW 3 - 1012.0 - 0.0 - Partly cloudy 10 - - - -
23/04:30am 27.0 CALM 0 - 1012.0 - 0.0 - Cloudy 10 - - - -
23/04:00am 27.0 WSW 3 - 1011.0 - 0.0 - Partly cloudy 10 - - - -
23/03:30am 27.0 SW 3 - 1011.0 - 0.0 - Partly cloudy 10 - - - -
23/03:00am 26.3 SW 4 - 1010.6 - 0.0 - Mostly clear 10 - - - -
23/02:44am 27.0 W 4 - 1011.0 - 0.0 - - 10 - - - -
23/02:30am 27.0 W 3 - 1011.0 - 0.0 - Partly cloudy 5 - - - -
23/02:00am 26.0 W 4 - 1011.0 - 0.0 - - 10 - - - -
23/01:30am 27.0 WNW 3 - 1011.0 - 0.0 - - 7 - - - -
23/01:00am 27.0 W 4 - 1011.0 - 0.0 - Partly cloudy 10 - - - -
23/12:30am 27.0 W 5 - 1012.0 - 0.0 - - 10 - - - -
23/12:00am 26.9 W 5 6 1011.9 - 0.0 - Mostly clear 10 - - - -
 
Date/Time
WST
Temp

°C
Wind Pressure Rain
since 9am
mm
Weather Cloud Vis
km
Sea
Height
m
Swell
Dir
 
Speed
knots
Gust
knots
hPa Trend Height
m
Period
s
Dir
22/11:30pm 27.0 W 4 - 1012.0 - 0.0 - - 10 - - - -
22/11:00pm 27.0 WNW 4 - 1012.0 - 0.0 - - 10 - - - -
22/10:30pm 27.0 W 4 - 1013.0 - 0.0 - - 10 - - - -
22/10:00pm 27.0 W 3 - 1013.0 - 0.0 - - 10 - - - -
22/09:30pm 27.0 WNW 4 - 1013.0 - 0.0 - - 10 - - - -
22/09:00pm 26.8 NW 4 - 1013.0 - 0.0 - - 10 - - - -
22/08:30pm 27.0 NW 5 - 1013.0 - 0.0 - - 10 - - - -
22/08:00pm 27.0 NNW 4 - 1013.0 - 0.0 - - 10 - - - -
22/07:30pm 27.0 NW 4 - 1013.0 - 0.0 - - 10 - - - -
22/07:00pm 28.0 NW 6 - 1012.0 - 0.0 - - 10 - - - -
22/06:30pm 28.0 NNW 6 - 1012.0 - 0.0 - - 10 - - - -
22/06:00pm 28.0 NNW 6 - 1011.7 - 0.0 - - 10 - - - -
22/05:30pm 28.0 NW 5 - 1011.0 - 0.0 - - 10 - - - -
22/05:00pm 29.0 NNW 7 - 1011.0 - 0.0 - - 10 - - - -
22/04:30pm 29.0 N 9 - 1011.0 - 0.0 - - 10 - - - -
22/04:00pm 30.0 NNW 9 - 1010.0 - 0.0 - - 10 - - - -
22/03:30pm 30.0 NNW 10 - 1010.0 - 0.0 - - 10 - - - -
22/03:00pm 31.0 NNW 9 - 1010.1 - 0.0 - - 10 - - - -
22/02:30pm 31.0 NNW 11 - 1010.0 - 0.0 - - 10 - - - -
22/02:00pm 31.0 NNW 9 - 1011.0 - 0.0 - - 10 - - - -
22/01:30pm 32.0 NNW 10 - 1011.0 - 0.0 - Partly cloudy 10 - - - -
22/01:00pm 32.0 N 10 - 1011.0 - 0.0 - Partly cloudy 10 - - - -
22/12:30pm 31.0 N 10 - 1012.0 - 0.0 - Partly cloudy 10 - - - -
22/12:00pm 32.9 NNW 9 - 1012.3 - 0.0 - Mostly clear 10 - - - -
22/11:30am 33.0 N 9 - 1013.0 - 0.0 - Partly cloudy 10 - - - -
22/11:00am 32.0 NNW 8 - 1013.0 - 0.0 - - 10 - - - -
22/10:30am 32.0 N 7 - 1013.0 - 0.0 - Partly cloudy 10 - - - -
22/10:00am 32.0 NW 7 - 1014.0 - 0.0 - Partly cloudy 10 - - - -
22/09:30am 32.0 NW 7 - 1014.0 - 0.0 - - 10 - - - -
22/09:00am 31.0 NNW 5 - 1014.0 - 0.0 - - 10 - - - -
22/08:30am 30.0 NW 7 - 1014.0 - 0.0 - Partly cloudy 10 - - - -
22/08:00am 29.0 WNW 6 - 1014.0 - 0.0 - Partly cloudy 10 - - - -
22/07:30am 28.0 WNW 5 - 1014.0 - 0.0 - Partly cloudy 10 - - - -
22/07:00am 28.0 CALM 0 - 1014.0 - 0.0 - Partly cloudy 10 - - - -
22/06:30am 27.0 CALM 0 - 1013.0 - 0.0 - Partly cloudy 10 - - - -
22/06:00am 26.3 WSW 3 - 1012.8 - 0.0 - Mostly clear 10 - - - -
22/05:30am 25.0 S 4 - 1013.0 - 0.0 - Partly cloudy 10 - - - -
22/05:00am 24.0 CALM 0 - 1012.0 - 0.0 - - 10 - - - -
22/04:30am 24.0 CALM 0 - 1012.0 - 0.0 - - 10 - - - -
22/04:00am 26.0 SW 3 - 1012.0 - 0.0 - Partly cloudy 10 - - - -
22/03:30am 26.0 W 4 - 1011.0 - 0.0 - - 10 - - - -
22/03:00am 26.3 W 4 - 1011.2 - 0.0 - - 10 - - - -
22/02:30am 26.0 WSW 4 - 1011.0 - 0.0 - - 10 - - - -
22/02:00am 26.0 WSW 4 - 1011.0 - 0.0 - Partly cloudy 10 - - - -
22/01:30am 26.0 W 2 - 1011.0 - 0.0 - Partly cloudy 10 - - - -
22/01:00am 26.0 W 3 - 1011.0 - 0.0 - Partly cloudy 10 - - - -
22/12:30am 26.0 W 3 - 1012.0 - 0.0 - Partly cloudy 10 - - - -
22/12:00am 26.2 W 1 - 1012.4 - 0.0 - Mostly clear 10 - - - -
 
Date/Time
WST
Temp

°C
Wind Pressure Rain
since 9am
mm
Weather Cloud Vis
km
Sea
Height
m
Swell
Dir
 
Speed
knots
Gust
knots
hPa Trend Height
m
Period
s
Dir
21/11:30pm 27.0 WNW 4 - 1013.0 - 0.0 - - 10 - - - -
21/11:00pm 27.0 W 5 - 1013.0 - 0.0 - Partly cloudy 10 - - - -
21/10:30pm 27.0 WNW 3 - 1014.0 - 0.0 - Partly cloudy 10 - - - -
21/10:00pm 27.0 WNW 4 - 1014.0 - 0.0 - Partly cloudy 10 - - - -
21/09:30pm 27.0 WNW 4 - 1014.0 - 0.0 - Partly cloudy 10 - - - -
21/09:00pm 27.4 NW 4 - 1013.8 - 0.0 - - 10 - - - -
21/08:30pm 28.0 NW 4 - 1014.0 - 0.0 - - 10 - - - -
21/08:00pm 28.0 NW 5 - 1014.0 - 0.0 - - 10 - - - -
21/07:30pm 28.0 NW 5 - 1014.0 - 0.0 - - 8 - - - -
21/07:00pm 28.0 NW 4 - 1014.0 - 0.0 - - 10 - - - -
21/06:30pm 28.0 NNW 6 - 1013.0 - 0.0 - - 10 - - - -
21/06:00pm 28.3 NNW 7 - 1012.5 - 0.0 - - 7 - - - -
21/05:30pm 28.0 NNW 8 - 1012.0 - 0.0 - - 9 - - - -
21/05:00pm 29.0 NNW 8 - 1012.0 - 0.0 - - 9 - - - -
21/04:30pm 29.0 NNW 9 - 1012.0 - 0.0 - - 10 - - - -
21/04:00pm 30.0 NNW 10 - 1011.0 - 0.0 - - 10 - - - -
21/03:30pm 30.0 NNW 10 - 1011.0 - 0.0 - - 10 - - - -
21/03:00pm 30.6 NNW 10 - 1011.1 - 0.0 - - 10 - - - -
21/02:30pm 31.0 NNW 10 - 1011.0 - 0.0 - Partly cloudy 10 - - - -
21/02:00pm 31.0 N 11 - 1012.0 - 0.0 - Partly cloudy 10 - - - -
21/01:30pm 31.0 NNW 11 - 1012.0 - 0.0 - - 10 - - - -
21/01:00pm 31.0 NNW 11 - 1012.0 - 0.0 - - 10 - - - -
21/12:30pm 31.0 NNW 9 - 1013.0 - 0.0 - Partly cloudy 10 - - - -
21/12:00pm 31.0 N 10 - 1013.0 - 0.0 - Mostly clear 10 - - - -
21/11:30am 32.0 N 9 - 1014.0 - 0.0 - - 10 - - - -
21/11:00am 31.0 N 11 - 1014.0 - 0.0 - - 10 - - - -
21/10:30am 32.0 NNW 10 - 1014.0 - 0.0 - Partly cloudy 10 - - - -
21/10:00am 31.0 NNW 9 - 1015.0 - 0.0 - Partly cloudy 10 - - - -
21/09:30am 31.0 NNW 8 - 1015.0 - 0.0 - Partly cloudy 10 - - - -
21/09:00am 30.9 NNW 6 - 1015.6 - 0.0 - Mostly clear 10 - - - -
21/08:30am 30.0 NNW 10 - 1015.0 - 0.0 - Partly cloudy 10 - - - -
21/08:00am 30.0 N 7 - 1015.0 - 0.0 - Partly cloudy 10 - - - -
21/07:30am 29.0 N 6 - 1015.0 - 0.0 - Partly cloudy 10 - - - -
21/07:00am 29.0 NNE 3 - 1015.0 - 0.0 - - 10 - - - -
21/06:30am 27.0 E 3 - 1015.0 - 0.0 - - 10 - - - -
21/06:00am 25.8 NE 5 - 1014.0 - 0.0 - - 10 - - - -
21/05:30am 25.0 S 3 - 1013.0 - 0.0 - - 10 - - - -
21/05:00am 25.0 SSW 3 - 1013.0 - 0.0 - - 10 - - - -
21/04:30am 26.0 SW 4 - 1012.0 - 0.0 - - 10 - - - -
21/04:00am 27.0 SW 6 - 1012.0 - 0.0 - - 10 - - - -
21/03:30am 27.0 WSW 6 - 1012.0 - 0.0 - - 10 - - - -
21/03:00am 26.7 WSW 5 - 1011.6 - 0.0 - - 10 - - - -
21/02:30am 27.0 WSW 4 - 1012.0 - 0.0 - - 10 - - - -
21/02:00am 27.0 SW 4 - 1012.0 - 0.0 - - 10 - - - -
21/01:30am 27.0 WSW 5 - 1011.0 - 0.0 - - 10 - - - -
21/01:00am 27.0 WSW 5 - 1012.0 - 0.0 - - 10 - - - -
21/12:30am 27.0 W 5 - 1012.0 - 0.0 - - 10 - - - -
21/12:00am 26.8 WSW 3 - 1012.1 - 0.0 - - 10 - - - -

Other Formats:

Comma delimited format used in spreadsheet applications
http://www.bom.gov.au/fwo/IDW60701/IDW60701.95101.axf

JavaScript Object Notation format (JSON) in row-major order
http://www.bom.gov.au/fwo/IDW60701/IDW60701.95101.json